Location: Vojnic
(45.3264°N, 15.6972°E)
Time: 02:40:17
(UTC+02:00)

USA 238 DEB - Visible Passes

Search period start: 20 June 2025 00:00
Search period end: 30 June 2025 00:00
Orbit: 899 x 1311 km, 63.4° (Epoch: 11 June)

Date Brightness Start Highest point End Pass type
(mag) Time Alt. Az. Time Alt. Az. Time Alt. Az.
20 Jun 5.2 21:29:04 10° NW 21:35:53 38° WSW 21:43:06 10° S visible
21 Jun 6.3 22:38:46 10° W 22:40:44 11° WSW 22:42:43 10° WSW visible
22 Jun 6.0 21:51:15 10° WNW 21:56:17 19° WSW 22:01:30 10° SSW visible
25 Jun 6.3 21:28:15 10° WNW 21:31:57 14° WSW 21:35:45 10° SW visible
